DECAYED

STARLINK-1334, 45556 (Decayed)

Orbit data source: Space-Track

STARLINK-1334, 45556 was a payload satellite owned by SpaceX/Seattle (US) in LEO that was launched on Wed, 22 Apr 2020 UTC via an FALCON 9 launch vehicle from the Air Force Eastern Test Range (AFETR). Payload-class satellites include a variety of spacecraft equipped with specific instruments for various scientific and technological missions. These include communications satellites like Starlink; space stations such as the ISS; scientific satellites like the Hubble; Earth observation satellites from companies like Planet Labs, Umbra, and HawkEye 360; GPS; miniature CubeSats for education and research; and military/defense satellites.

Not visible in the next 10 days
Identifier
45556, 2020-025AB
Orbit
Decayed
Country
Flag of USUS
Related business
Manufacturer
SpaceX/Seattle
Mission
Decayed Commercial Communications
Bus & Motor
STARLINK, Unknown motor
Mass
260 kg wet, ~248 kg dry
Launch date (UTC)
2020-04-22 (5 years ago)
Launch vehicle
FALCON 9
Launch site
Air Force Eastern Test Range (AFETR)
Object type
Payload
Rocket body
Debris
Shape & HBR
Box + 1 Pan, 4.4 m
Radar Cross Section
13.562 m², Large (>1 m²)

Expand to show TLE details & history
Last TLE update: 3 months ago

TLE from 3 months ago
0 STARLINK-1334
1 45556U 20025AB  25157.45099881  .12014585  12664-4  13670-3 0  9997
2 45556  53.0193 166.9080 0007217 284.2939 245.5959 16.49739738284248
Epoch: 2025-06-06T10:49Z
TLE epoch observation values (Epoch: 2025-06-06T10:49:26.297Z)
Latitude
8.09013°
Longitude
-76.66569°
Altitude
142.206 km
Speed
7.822 km/s
True Right ascension
22h 43m 11s
True Declination
8° 02' 16"
Sunlit
Object was in daylight at epoch
Visualization orbit readout
Latitude
Unknown
Longitude
Unknown
Altitude
Unknown
Speed
Unknown
Apparent Right ascension
Unknown
Apparent Declination
Unknown
Sunlit
N/A
Visualization observer readout
Local Sidereal Time
05:10:50
Azimuth
Unknown
Elevation
Unknown
Doppler factor
Unknown
Orbital elements
Apogee altitude
145.018 km
Perigee altitude
135.61 km
Semi-major axis
6,518.451 km
Eccentricity
0.00072
Inclination
53.0193°
RAAN
166.908°
Arg. of periapsis
284.2939°
True anomaly
245.52062°
Mean anomaly
245.5959°
Eccentric anomaly
245.55826°
Mean motion
4.12407 °/min
Orbital period
87.29 mins
BSTAR
0.0001367
Loading maneuver chart data...
Computing Atmospheric mass density...
Loading historical data...
Loading historical data...
Loading historical data...
Loading historical data...
Loading historical data...
Loading historical data...
Loading historical data...

Documentation

Showing up to 5 results
|